Flag for Canada Weather past 2 weeks in Hamilton, Ontario, Canada

Now
27 °F

Partly cloudy.


Feels Like: 23 °F
Forecast: 27 / 45 °F
Wind: 3 mph from Northwest

Location: Hamilton Airport

Current Time: Apr 1, 2015 at 4:45:31 AM

Latest Report: Apr 1, 2015 at 4:00 AM


Visibility: 15 mi

Pressure: 30.03 "Hg

Humidity: 74%

Dew point: 19 °F

Location of HamiltonLocation

Historic Weather in Hamilton — Graph

°F

Hamilton temperature yesterday

Maximum temperature yesterday: 41 °F (at 3:00 PM)
Minimum temperature yesterday: 27 °F (at 3:00 AM)
Average temperature yesterday: 33 °F

Past Weeks' High & Low Weather Summary

 TemperatureHumidityPressure
High48 °F (Mar 20, 4:00 PM)100% (Mar 17, 3:00 AM)30.42 "Hg (Mar 17, 3:00 AM)
Low12 °F (Mar 28, 6:00 AM)29% (Mar 19, 1:00 PM)29.62 "Hg (Mar 30, 4:00 AM)
Average29 °F65%30.09 "Hg
* Reported Mar 17 3:00 AM — Apr 1 3:00 AM, Hamilton, Weather by CustomWeather, © 2015

Note: Actual official high and low records may vary slightly from our data, if they occured in-between our weather recording intervals... More about our weather records

Advertising

Hamilton weather history for previous 24 hours

 ConditionsComfort  
Time TempWeatherWind HumidityBarometerVisibility
3:00 AM
Wed, Apr 1
28 °FPartly cloudy.5 mph74%30.01 "Hg15 mi
2:00 AM28 °FPassing clouds.5 mph74%30.01 "Hg15 mi
1:00 AM30 °FPartly cloudy.2 mph69%30.00 "Hg15 mi
12:00 AM30 °FPassing clouds.5 mph69%29.99 "Hg15 mi
11:00 PM
Tue, Mar 31
32 °FPassing clouds.5 mph69%29.98 "Hg15 mi
10:00 PM32 °FPartly cloudy.7 mph69%29.96 "Hg15 mi
9:00 PM34 °FPassing clouds.7 mph60%29.93 "Hg15 mi
8:00 PM37 °FBroken clouds.7 mph52%29.91 "Hg15 mi
7:00 PM39 °FBroken clouds.9 mph48%29.88 "Hg15 mi
6:00 PM41 °FBroken clouds.2 mph57%29.86 "Hg15 mi
5:00 PM41 °FPartly sunny.No wind53%29.84 "Hg15 mi
4:00 PM41 °FPartly sunny.3 mph57%29.83 "Hg15 mi
3:00 PM41 °FPartly sunny.6 mph57%29.82 "Hg15 mi
2:00 PM39 °FBroken clouds.10 mph65%29.81 "Hg15 mi
1:00 PM36 °FPartly sunny.8 mph70%29.81 "Hg15 mi
12:00 PM34 °FMore clouds than sun.7 mph75%29.81 "Hg15 mi
11:00 AM34 °FCloudy.6 mph75%29.82 "Hg15 mi
10:00 AM32 °FMostly cloudy.3 mph80%29.84 "Hg15 mi
9:00 AM30 °FMostly cloudy.No wind86%29.83 "Hg15 mi
8:00 AM28 °FMostly cloudy.3 mph86%29.85 "Hg15 mi
7:00 AM28 °FPassing clouds.No wind86%29.85 "Hg15 mi
6:00 AM28 °FPassing clouds.5 mph80%29.86 "Hg15 mi
5:00 AM27 °FPassing clouds.3 mph86%29.88 "Hg15 mi
4:00 AM27 °FPassing clouds.6 mph86%29.89 "Hg15 mi
Weather by CustomWeather, © 2015

See weather overviewHow to use our weather pages